Location: Newark
(13.6797°N, 8.5297°E)
Time: 14:56:35
(UTC+00:00)

Courier 1B Rocket - Pass Details

Date: 24 January 2020
Orbit: 920 x 1202 km, 28.2° (Epoch: 22 February)

Event Time Altitude Azimuth Distance (km) Brightness Sun altitude
Rises 07:59:29 0° 229° (SW) 4,083 8.1 27.0°
Reaches altitude 10° 08:02:28 10° 223° (SW) 3,105 7.6 27.6°
Maximum altitude 08:09:53 50° 151° (SSE) 1,434 7.2 29.1°
Drops below altitude 10° 08:16:55 10° 77° (ENE) 2,951 8.3 30.6°
Sets 08:19:41 0° 72° (ENE) 3,866 8.6 31.1°
